Location: Goli�?e
(46.0667°N, 14.7667°E)
Time: 18:27:25
(UTC+00:00)

Daily predictions for brighter satellites

Satellite Brightness Start Highest point End
(mag) Time Altitude Azimuth Time Altitude Azimuth Time Altitude Azimuth
Meteor 1-11 4.3 16:12:54 10° N 16:18:39 75° ENE 16:24:26 10° SSE
H-2A R/B 3.6 16:15:20 10° S 16:19:42 54° W 16:24:08 10° NNW
USA 306 3.8 16:17:26 10° NW 16:21:23 34° NNE 16:25:18 10° E
Cosmos 1689 Rocket 3.9 16:20:09 10° ENE 16:21:43 14° E 16:23:15 10° SE
Cosmos 1953 Rocket 3.8 16:17:47 10° N 16:22:03 47° ENE 16:26:20 10° SSE
CZ-4B R/B 1.7 16:20:30 10° NNE 16:23:34 39° E 16:26:31 10° S
FengYun 1-2 T 4.4 16:18:39 10° SSE 16:24:11 59° ENE 16:29:43 10° N
CZ-4C R/B 4.3 16:21:24 10° NNW 16:25:40 18° N 16:30:25 10° NE
Cosmos 2058 Rocket 3.8 16:23:10 10° SSE 16:27:09 32° E 16:31:12 10° NNE
CZ-2C R/B 4.3 16:23:43 10° ESE 16:28:10 24° ENE 16:32:31 10° N
Cosmos 1455 3.9 16:37:11 10° ESE 16:39:12 14° E 16:41:13 10° NE
YAOGAN 6 4.0 16:35:56 10° S 16:39:26 45° W 16:43:00 10° NNW
Cosmos 2219 3.3 16:36:42 10° NNW 16:42:26 63° ENE 16:48:08 10° SE
BREEZE-M R/B 3.6 16:44:42 10° WNW 16:48:09 55° N 16:53:44 14° E
ATLAS 5 CENTAUR R/B 4.1 16:47:22 10° NW 16:49:36 13° NNW 16:52:02 10° NNE
H-2A R/B 3.6 16:45:59 10° N 16:49:48 36° WNW 16:53:34 10° SW
COSMO-SKYMED 1 2.9 16:45:42 10° NNE 16:49:52 44° E 16:54:01 10° S
Feng Yun 1-1 Rocket 4.4 16:44:08 10° SSE 16:50:00 73° ENE 16:55:56 10° NNW
Cosmos 2082 4.4 16:45:01 10° NNW 16:50:16 35° NE 16:55:28 10° ESE
Cosmos 44 3.4 16:46:34 10° SW 16:51:04 73° NW 16:55:53 10° NNE
H-2A R/B 3.1 16:50:38 10° ESE 16:55:05 27° ENE 16:59:35 10° N
S3M 4.4 16:50:23 10° SSE 16:55:53 36° E 17:01:25 10° NNE
ARGOS 4.3 16:54:30 13° ESE 16:57:53 22° ENE 17:01:57 10° NNE
Cosmos 1656 3.7 16:55:41 10° S 17:01:08 61° ESE 17:06:42 10° NNE
Cosmos 1939 Rocket 2.7 16:58:43 10° SSE 17:02:39 72° ENE 17:06:34 10° N
Meteor 2-8 Rocket 4.4 16:57:20 10° S 17:03:22 69° E 17:09:29 10° NNE
YAOGAN 1 3.1 16:59:35 10° SE 17:03:32 36° ENE 17:07:30 10° N
GEOS 3 Rocket 4.5 17:00:24 16° E 17:03:56 34° NE 17:08:45 10° NNW
Cosmos 2369 4.4 17:00:00 10° SSE 17:04:54 31° ESE 17:09:18 12° NE
USA 307 3.3 17:00:46 10° NW 17:04:56 48° NNE 17:07:25 22° E
SeaSat 1 3.7 17:03:40 18° ENE 17:05:24 22° NE 17:09:07 10° N
Okean O Rocket 3.4 17:02:08 10° SSW 17:06:08 35° W 17:10:09 10° NNW
NOSS 3-3 (A) 4.3 17:01:11 10° S 17:06:32 40° ESE 17:11:34 14° NE
NOSS 3-3 (C) 4.3 17:01:19 10° S 17:06:39 40° ESE 17:11:38 14° NE
Cosmos 1812 Rocket 4.5 17:06:11 10° SE 17:09:51 26° E 17:13:30 10° NNE
USA 308 3.2 17:05:41 10° NW 17:09:52 50° NNE 17:12:08 24° E
Cosmos 1408 3.1 17:06:42 10° N 17:10:08 36° ENE 17:13:33 10° SE
USA 215 4.1 17:07:14 16° ENE 17:11:49 35° N 17:17:37 10° NW
Cosmos 1726 Rocket 4.4 17:08:58 10° SSW 17:13:13 53° WNW 17:17:32 10° N
SKYMED 3 4.5 17:09:35 10° NNE 17:13:58 79° ESE 17:18:18 10° S
Helios 1A Rocket 2.8 17:10:48 10° SSE 17:14:52 67° ENE 17:18:58 10° N
Cosmos 2227 Rocket 2.1 17:09:16 10° NNW 17:14:58 84° ENE 17:20:38 10° SSE
CZ-4 R/B 4.3 17:11:06 10° SSE 17:15:15 77° ENE 17:19:27 10° N
Cosmos 1892 2.6 17:12:12 10° N 17:16:04 68° E 17:19:56 10° SSE
CSL-04 Rocket 4.1 17:12:07 10° SE 17:17:15 40° ENE 17:22:21 10° N
Aureole 3 Rocket 3.3 17:13:40 10° S 17:17:41 82° W 17:23:20 10° N
Cosmos 1400 Rocket 3.1 17:14:02 10° SSW 17:18:08 71° WNW 17:22:13 10° N
ATLAS 2AS CENTAUR R/B 3.7 17:11:47 10° NNW 17:18:30 32° NNE 17:22:01 22° ENE
Cosmos 2263 Rocket 3.5 17:14:23 10° N 17:18:31 20° NE 17:19:27 19° ENE
MOS 1 Rocket 4.0 17:15:14 10° NNE 17:19:31 33° E 17:24:01 10° SSE
IRS-1C Rocket 4.2 17:16:07 10° S 17:21:23 78° WSW 17:26:42 10° NNW
Cosmos 968 Rocket 3.4 17:19:11 10° NNW 17:24:27 86° ENE 17:29:37 10° SSE
Cosmos 1553 Rocket 3.9 17:18:20 10° S 17:24:41 83° E 17:30:59 10° N
FALCON 9 DEB 3.9 17:25:29 10° W 17:28:34 40° NNW 17:29:34 30° NNE
CZ-4 R/B 1.1 17:24:50 10° SSE 17:28:42 76° ENE 17:32:34 10° N
Atlas Centaur 2 4.4 17:22:19 10° SW 17:28:48 25° S 17:33:48 15° SE
Cosmos 1697 Rocket 2.7 17:24:32 10° S 17:29:59 56° ESE 17:34:45 14° NE
Lacrosse 5 3.4 17:26:06 10° NW 17:30:12 24° N 17:32:14 19° NE
FALCON 9 DEB 4.0 17:28:40 10° W 17:31:41 37° NNW 17:32:31 31° NNE
Cosmos 2058 2.7 17:29:01 10° N 17:33:08 76° E 17:37:13 10° SSE
PSLV R/B 4.1 17:29:57 10° N 17:34:08 77° WNW 17:38:15 10° SSW
Meteor 2-1 Rocket 4.1 17:28:45 10° S 17:34:10 64° E 17:39:39 10° NNE
Cosmos 1825 2.4 17:30:51 10° N 17:34:22 46° ENE 17:34:22 46° ENE
CZ-2D R/B 3.7 17:33:03 10° S 17:36:50 62° W 17:40:36 10° NNW
Meteor 2-15 4.3 17:30:50 10° S 17:36:58 82° E 17:43:08 10° N
SKYMED 2 4.2 17:33:42 10° N 17:37:59 58° WNW 17:42:15 10° SSW
Cosmos 44 Rocket 3.7 17:33:42 10° S 17:38:06 38° ESE 17:38:24 38° ESE
Timation 1 Rocket 4.5 17:33:06 10° NNW 17:38:59 53° NE 17:41:44 30° ESE
FALCON 9 DEB 4.0 17:37:49 10° NW 17:40:54 36° NNE 17:40:54 36° NNE
Okean-O 2.8 17:36:55 10° S 17:41:20 74° WSW 17:45:47 10° NNW
Cosmos 220 Rocket 3.9 17:37:34 10° SSW 17:41:56 84° ESE 17:45:06 19° NNE
SL-4 R/B 2.2 17:39:06 10° WNW 17:42:36 44° NNE 17:42:47 44° NNE
Cosmos 1346 Rocket 2.8 17:38:53 10° NNW 17:42:53 79° W 17:46:52 10° S
FALCON 9 DEB 4.1 17:42:06 10° W 17:45:06 34° NNW 17:45:25 33° N
Cosmos 1315 Rocket 2.7 17:46:38 10° S 17:50:34 89° W 17:54:01 14° N
Cosmos 1745 Rocket 4.1 17:44:40 10° N 17:51:00 82° W 17:57:20 10° S
Cosmos 1689 Rocket 4.3 17:50:27 10° NNW 17:52:56 26° WNW 17:55:23 10° SW
Cosmos 1980 Rocket 2.4 17:47:49 10° S 17:53:10 46° ESE 17:53:26 45° E
Cosmos 2297 Rocket 3.5 17:49:11 10° NW 17:54:28 41° WSW 17:59:42 10° S
USA 305 2.7 17:50:58 10° WNW 17:55:18 90° SSE 17:55:45 71° SE
FALCON 9 DEB 4.5 17:52:52 10° W 17:55:34 30° NNW 17:55:34 30° NNW
CSL-04 Debris 4.1 17:53:26 10° SSE 17:58:52 89° E 18:04:23 10° NNW
Cosmos 1503 Rocket 4.0 17:54:18 10° NNW 17:59:32 81° WSW 18:03:10 20° SSE
USA 306 2.8 17:57:27 10° WNW 18:01:45 82° SSW 18:01:57 79° SSE
DMSP B5D1-3 4.4 17:59:51 10° NNE 18:05:02 89° E 18:10:12 10° SSW
CZ-2C R/B 3.7 18:01:51 10° S 18:07:36 62° W 18:13:11 10° NNW
Cosmos 1354 Rocket 4.1 18:06:28 10° NNW 18:11:43 73° WSW 18:14:14 31° S
Cosmos 2360 4.1 18:07:09 10° SSW 18:12:52 90° WSW 18:15:32 34° NNE
Cosmos 1455 3.3 18:10:47 10° SSW 18:14:23 44° WNW 18:17:16 15° N
CZ-4C R/B 3.6 18:10:06 10° NNW 18:16:20 35° NE 18:16:59 34° NE
Cosmos 1709 Rocket 4.0 18:14:14 10° N 18:20:40 85° W 18:27:03 10° S
Cosmos 2278 3.5 18:18:55 10° SSW 18:24:36 83° ESE 18:24:51 80° ENE
Ariane Rocket 4.2 18:30:46 31° N 18:30:46 31° N 18:33:28 10° N
Meteor 2-3 Rocket 4.3 18:22:57 10° N 18:27:07 46° NNE 18:27:07 46° NNE
Geosat 4.3 18:29:49 51° N 18:30:54 66° WNW 18:35:52 10° SW
H-2A R/B 2.9 18:28:58 10° S 18:34:12 50° W 18:39:32 10° NNW
ATLAS 5 CENTAUR R/B 4.3 18:34:35 10° NNW 18:36:16 12° N 18:36:16 12° N
ARGOS 3.5 18:36:01 42° SSW 18:37:41 62° WSW 18:43:06 10° NNW
GEOS 3 Rocket 3.9 18:41:31 61° SW 18:41:42 62° SW 18:47:03 10° NW
SeaSat 1 3.0 18:43:27 55° NW 18:43:27 55° NW 18:47:26 10° NNW
Cosmos 2315 Rocket 4.1 18:36:27 10° SSW 18:42:38 71° W 18:48:50 10° N
NOSS 3-4 (A) 3.7 18:41:15 10° NW 18:48:17 86° NE 18:48:36 82° ESE
NOSS 3-4 (C) 3.7 18:41:21 10° NW 18:48:22 85° NE 18:48:40 82° ESE
DEBRIS 4.1 18:36:43 10° WSW 18:51:46 77° NNW 18:51:52 77° N
USA 215 3.5 18:54:35 57° N 18:54:35 57° N 19:00:31 10° NW
Cosmos 2263 Rocket 3.2 18:57:29 10° NNW 19:01:09 42° NNW 19:01:09 42° NNW
ATLAS 2AS CENTAUR R/B 2.9 19:02:54 10° NW 19:09:28 70° NW 19:09:28 70° NW
BREEZE-M R/B 4.5 19:06:07 10° WNW 19:10:34 67° WSW 19:10:34 67° WSW
Lacrosse 5 3.9 19:09:23 10° NW 19:11:26 23° NNW 19:11:26 23° NNW
Cosmos 1697 Rocket 4.5 19:09:32 10° WSW 19:14:18 28° NW 19:16:32 21° NNW
Atlas Centaur 2 4.5 19:10:55 10° WSW 19:16:24 24° SSW 19:16:24 24° SSW
Cosmos 1980 Rocket 4.1 19:32:18 10° WSW 19:35:17 25° W 19:35:17 25° W
CZ-4C R/B 4.1 19:58:22 10° NW 20:02:11 36° NW 20:02:11 36° NW
